Weather History for Greenville, ME

Change the Weather History Date:

Monday, November 26, 2012

  Actual Average (KMLT) Record (KMLT)
Temperature  
Mean Temperature 22 °F 30 °F  
Max Temperature 28 °F 37 °F 65 °F (1953)
Min Temperature 16 °F 24 °F -5 °F (1938)
Degree Days  
Heating Degree Days 43 35  
Month to date heating degree days 768  
Since 1 July heating degree days 1702  
Cooling Degree Days 0 0  
Month to date cooling degree days 0  
Year to date cooling degree days 268  
Moisture  
Dew Point 10 °F    
Average Humidity 64    
Maximum Humidity 77    
Minimum Humidity 41    
Precipitation  
Precipitation 0.00 in 0.15 in 3.55 in (1950)
Month to date precipitation 3.75  
Year to date precipitation 38.47  
Sea Level Pressure  
Sea Level Pressure 29.91 in    
Wind  
Wind Speed 8 mph (NW)    
Max Wind Speed 13 mph    
Max Gust Speed 29 mph    
T = Trace of Precipitation, MM = Missing Value Source: NWS Daily Summary

Daily Weather History Graph

Daily Weather History Graph

Search for Another Location

Airport:

Trip Planner

Search our weather history database for the weather conditions in past years. The results will help you decide how hot, cold, wet, or windy it might be!

Date:

Astronomy

Nov. 26, 2012 Rise Set
Actual Time 6:52 AM EST 3:58 PM EST
Civil Twilight 6:19 AM EST 4:32 PM EST
Nautical Twilight 5:42 AM EST 5:08 PM EST
Astronomical Twilight 5:07 AM EST 5:44 PM EST
Moon 2:51 PM EST (11/26) 4:56 AM EST (11/26)
Length of Visible Light 10h 12m
Length of Day
9h 06m
Waxing Gibbous, 97% of the Moon is Illuminated
Nov 26
Waxing Gibbous
Nov 28
Full
Dec 6
Last Quarter
Dec 13
New
Dec 20
First Quarter

Hourly Weather History & Observations

Time (EST) Temp. Windchill Dew Point Humidity Pressure Visibility Wind Dir Wind Speed Gust Speed Precip Events Conditions
12:56 AM 18.0 °F 7.7 °F 10.0 °F 71% 29.67 in - NW 8.1 mph - N/A   Unknown
1:56 AM 18.0 °F 5.4 °F 9.0 °F 68% 29.69 in - NW 11.5 mph 23.0 mph N/A   Unknown
2:56 AM 17.1 °F 6.6 °F 10.0 °F 74% 29.71 in - NW 8.1 mph - N/A   Unknown
3:56 AM 17.1 °F 6.6 °F 10.0 °F 74% 29.72 in - WNW 8.1 mph - N/A   Unknown
4:56 AM 16.0 °F 7.4 °F 10.0 °F 77% 29.74 in - NW 5.8 mph - N/A   Unknown
5:56 AM 17.1 °F 5.8 °F 10.0 °F 74% 29.75 in - WNW 9.2 mph - N/A   Unknown
6:56 AM 17.1 °F 7.6 °F 9.0 °F 71% 29.78 in - Variable 6.9 mph - N/A   Unknown
7:56 AM 19.0 °F 8.2 °F 10.0 °F 68% 29.81 in - NW 9.2 mph 19.6 mph N/A   Unknown
8:56 AM 21.0 °F 11.4 °F 10.0 °F 63% 29.82 in - WNW 8.1 mph 18.4 mph N/A   Unknown
9:56 AM 24.1 °F 18.2 °F 9.0 °F 53% 29.84 in - Variable 4.6 mph 20.7 mph N/A   Unknown
10:56 AM 27.0 °F 20.5 °F 9.0 °F 47% 29.84 in - WNW 5.8 mph - N/A   Unknown
11:56 AM 28.0 °F 20.0 °F 7.0 °F 41% 29.85 in - NW 8.1 mph - N/A   Unknown
12:56 PM 28.0 °F 22.8 °F 8.1 °F 43% 29.87 in - Variable 4.6 mph - N/A   Unknown
1:56 PM 28.0 °F 20.8 °F 9.0 °F 45% 29.90 in - Variable 6.9 mph - N/A   Unknown
2:56 PM 25.0 °F 15.5 °F 8.1 °F 49% 29.94 in - NW 9.2 mph 18.4 mph N/A   Unknown
3:56 PM 23.0 °F 14.7 °F 10.0 °F 58% 29.99 in - Variable 6.9 mph - N/A   Unknown
4:56 PM 21.9 °F 9.8 °F 10.9 °F 63% 30.01 in - NW 12.7 mph 28.8 mph N/A   Unknown
5:56 PM 19.9 °F 8.6 °F 10.9 °F 68% 30.06 in - NW 10.4 mph 20.7 mph N/A   Unknown
6:56 PM 19.0 °F 9.0 °F 10.0 °F 68% 30.10 in - WNW 8.1 mph - N/A   Unknown
7:56 PM 19.0 °F 9.0 °F 10.9 °F 71% 30.12 in - WNW 8.1 mph - N/A   Unknown
8:56 PM 19.0 °F 7.5 °F 10.9 °F 71% 30.11 in - NW 10.4 mph 18.4 mph N/A   Unknown
9:56 PM 19.0 °F 9.0 °F 12.9 °F 77% 30.12 in - WNW 8.1 mph - N/A   Unknown
10:56 PM 19.0 °F 11.1 °F 12.0 °F 74% 30.15 in - Variable 5.8 mph - N/A   Unknown
11:56 PM 18.0 °F 11.1 °F 10.9 °F 74% 30.16 in - NW 4.6 mph - N/A   Unknown